User: anonymous   Login
Location: Unspecified
(0.0000°N, 0.0000°E)
Time: 13:59:43
(UTC+00:00)
Language:

Transit 2A Rocket - Orbit

View from above orbital plane
View from above orbital plane
View from above satellite
View from above satellite

Ground track
Ground track

The orbit data is extracted from the following two-line orbital elements,

1    47U 60007C   21213.08529820  .00000017  00000-0  28764-4 0  9996
2    47  66.6660 139.6653 0227290   1.6190 358.5598 14.42163500194198
Epoch (UTC): 01 August 2021 02:02:49
Eccentricity: 0.0227290
inclination: 66.6660°
perigee height: 589 km
apogee height: 913 km
right ascension of ascending node: 139.6653°
argument of perigee: 1.6190°
revolutions per day: 14.42163500
mean anomaly at epoch: 358.5598°
orbit number at epoch: 19419

The dashed part of the orbit path shows where the satellite is in the earth's shadow,  

DLR